Date String (YYYY-MM-DD hh:mm:ss) UTC,Instrument flags,Ambient pressure (hPa),Sample flow (lpm),Bypass flow (lpm),Sample temperature (°C),Ambient temperature (°C),ASC tube jacket temperature (°C),LED temperature (°C),Box temperature (°C),Sample RH (%),Span deviation,Mass concentration (μg/m³),Mass concentration (μg/m³),Mass concentration (μg/m³)
DateTimeUTC,F1_M11,P_M11,Q1_M11,Q2_M11,T1_M11,T2_M11,T3_M11,T4_M11,T5_M11,U1_M11,ZSPAN_M11,X0_M11,X2_M11,X1_M11
2021-09-24 11:00:00,,0830.3,5.01,0.00,30.3,29.3,00.0,39.5,32.0,11.4,0002.0,0019.92,0010.90,0010.02
2021-09-24 11:01:00,,0830.4,5.00,0.00,30.3,29.3,00.0,39.5,32.0,11.5,0001.8,0020.53,0010.85,0009.93
2021-09-24 11:02:00,,0830.4,5.01,0.00,30.3,29.3,00.0,39.5,32.0,11.4,0001.8,0019.58,0010.73,0009.85
2021-09-24 11:03:00,,0830.4,5.00,0.00,30.3,29.3,00.0,39.5,32.0,11.4,0002.1,0018.99,0010.66,0009.78
2021-09-24 11:04:00,,0830.4,5.00,0.00,30.3,29.3,00.0,39.5,32.0,11.5,0002.1,0018.81,0010.61,0009.73
2021-09-24 11:05:00,,0830.4,5.00,0.00,30.3,29.3,00.0,39.5,32.0,11.5,0002.1,0018.71,0010.62,0009.70
2021-09-24 11:06:00,,0830.4,4.99,0.00,30.3,29.3,00.0,39.5,32.0,11.5,0002.2,0019.16,0010.59,0009.66
2021-09-24 11:07:00,,0830.4,5.02,0.00,30.3,29.2,00.0,39.5,32.0,11.5,0002.2,0019.99,0010.53,0009.62
2021-09-24 11:08:00,,0830.4,4.99,0.00,30.3,29.3,00.0,39.5,32.0,11.4,0002.4,0020.01,0010.43,0009.58
2021-09-24 11:09:00,,0830.4,5.01,0.00,30.3,29.3,00.0,39.5,32.0,11.4,0002.4,0020.23,0010.45,0009.59
2021-09-24 11:10:00,,0830.4,4.99,0.00,30.3,29.3,00.0,39.5,32.0,11.5,0002.3,0020.22,0010.45,0009.65
2021-09-24 11:11:00,,0830.4,4.99,0.00,30.3,29.3,00.0,39.5,32.0,11.4,0002.2,0019.25,0010.49,0009.68
2021-09-24 11:12:00,,0830.4,5.01,0.00,30.3,29.3,00.0,39.5,32.0,11.4,0002.4,0018.14,0010.47,0009.70
2021-09-24 11:13:00,,0830.4,4.99,0.00,30.3,29.3,00.0,39.5,32.0,11.4,0002.4,0018.10,0010.44,0009.68
2021-09-24 11:14:00,,0830.5,5.01,0.00,30.3,29.2,00.0,39.5,32.0,11.4,0002.4,0018.55,0010.48,0009.69
2021-09-24 11:15:00,,0830.4,5.00,0.00,30.3,29.2,00.0,39.5,32.0,11.4,0002.1,0018.45,0010.49,0009.69
2021-09-24 11:16:00,,0830.4,4.99,0.00,30.3,29.2,00.0,39.5,32.0,11.4,0002.0,0018.44,0010.46,0009.68
2021-09-24 11:17:00,,0830.4,5.00,0.00,30.3,29.3,00.0,39.5,32.0,11.4,0002.1,0018.03,0010.52,0009.69
2021-09-24 11:18:00,,0830.4,5.01,0.00,30.3,29.3,00.0,39.5,32.0,11.5,0002.2,0017.46,0010.54,0009.71
2021-09-24 11:19:00,,0830.5,5.00,0.00,30.3,29.3,00.0,39.5,32.0,11.5,0002.2,0017.40,0010.56,0009.74
2021-09-24 11:20:00,,0830.5,5.01,0.00,30.3,29.3,00.0,39.5,32.0,11.5,0002.1,0017.24,0010.51,0009.72
2021-09-24 11:21:00,,0830.4,4.99,0.00,30.3,29.3,00.0,39.5,32.0,11.5,0002.2,0017.39,0010.52,0009.68
2021-09-24 11:22:00,,0830.4,5.00,0.00,30.3,29.2,00.0,39.5,32.0,11.5,0002.2,0017.33,0010.55,0009.68
2021-09-24 11:23:00,,0830.4,5.00,0.00,30.3,29.2,00.0,39.5,32.0,11.5,0002.3,0017.34,0010.65,0009.74
2021-09-24 11:24:00,,0830.4,5.00,0.00,30.3,29.2,00.0,39.5,32.0,11.5,0002.3,0017.34,0010.77,0009.83
2021-09-24 11:25:00,,0830.4,5.00,0.00,30.3,29.2,00.0,39.5,32.0,11.5,0002.2,0017.16,0010.83,0009.90
2021-09-24 11:26:00,,0830.5,5.00,0.00,30.3,29.2,00.0,39.5,32.0,11.5,0002.4,0018.00,0010.88,0009.98
2021-09-24 11:27:00,,0830.5,5.00,0.00,30.3,29.2,00.0,39.5,32.0,11.5,0002.5,0018.89,0010.96,0010.06
2021-09-24 11:28:00,,0830.5,5.00,0.00,30.3,29.2,00.0,39.5,32.0,11.5,0002.6,0018.82,0011.02,0010.13
2021-09-24 11:29:00,,0830.4,4.99,0.00,30.3,29.3,00.0,39.5,32.0,11.5,0002.7,0019.05,0011.10,0010.18
2021-09-24 11:30:00,,0830.5,5.01,0.00,30.3,29.3,00.0,39.5,32.0,11.5,0002.6,0018.89,0011.14,0010.21
2021-09-24 11:31:00,,0830.4,5.00,0.00,30.3,29.3,00.0,39.5,32.0,11.5,0002.8,0018.65,0011.19,0010.26
2021-09-24 11:32:00,,0830.5,4.99,0.00,30.3,29.3,00.0,39.5,32.0,11.5,0002.7,0018.28,0011.21,0010.30
2021-09-24 11:33:00,,0830.5,5.01,0.00,30.3,29.3,00.0,39.5,32.0,11.6,0002.7,0018.26,0011.20,0010.32
2021-09-24 11:34:00,,0830.6,5.00,0.00,30.3,29.3,00.0,39.5,32.0,11.7,0002.7,0018.17,0011.15,0010.28
2021-09-24 11:35:00,,0830.5,5.00,0.00,30.3,29.3,00.0,39.5,32.0,11.6,0002.6,0018.76,0011.09,0010.24
2021-09-24 11:36:00,,0830.5,4.99,0.00,30.3,29.3,00.0,39.5,32.0,11.6,0002.7,0019.21,0011.06,0010.20
2021-09-24 11:37:00,,0830.5,5.01,0.00,30.3,29.3,00.0,39.5,32.0,11.6,0002.7,0018.95,0011.08,0010.15
2021-09-24 11:38:00,,0830.5,4.98,0.00,30.3,29.3,00.0,39.5,32.0,11.6,0002.6,0018.83,0011.11,0010.14
2021-09-24 11:39:00,,0830.6,5.00,0.00,30.3,29.4,00.0,39.5,32.0,11.7,0002.5,0019.10,0011.07,0010.14
2021-09-24 11:40:00,,0830.6,5.01,0.00,30.3,29.4,00.0,39.5,32.0,11.7,0002.3,0018.68,0011.06,0010.16
2021-09-24 11:41:00,,0830.6,5.01,0.00,30.3,29.4,00.0,39.4,32.0,11.7,0002.2,0018.61,0011.07,0010.18
2021-09-24 11:42:00,,0830.6,4.99,0.00,30.3,29.4,00.0,39.5,32.0,11.8,0002.2,0019.19,0011.13,0010.17
2021-09-24 11:43:00,,0830.6,4.99,0.00,30.3,29.4,00.0,39.5,32.0,11.8,0002.2,0019.66,0011.11,0010.15
2021-09-24 11:44:00,,0830.6,5.01,0.00,30.3,29.4,00.0,39.5,32.0,11.7,0002.1,0019.95,0011.10,0010.15
2021-09-24 11:45:00,,0830.6,4.99,0.00,30.3,29.4,00.0,39.5,32.0,11.7,0002.0,0019.98,0011.14,0010.21
2021-09-24 11:46:00,,0830.6,5.00,0.00,30.3,29.4,00.0,39.5,32.0,11.7,0002.0,0019.56,0011.20,0010.26
2021-09-24 11:47:00,,0830.6,4.99,0.00,30.3,29.4,00.0,39.5,32.0,11.7,0001.9,0018.84,0011.23,0010.29
2021-09-24 11:48:00,,0830.6,5.00,0.00,30.3,29.4,00.0,39.5,32.0,11.7,0002.0,0018.25,0011.20,0010.34
2021-09-24 11:49:00,,0830.6,5.00,0.00,30.3,29.4,00.0,39.5,32.0,11.7,0002.0,0018.06,0011.13,0010.36
2021-09-24 11:50:00,,0830.6,4.99,0.00,30.3,29.4,00.0,39.5,32.0,11.7,0001.8,0018.05,0011.16,0010.36
2021-09-24 11:51:00,,0830.6,5.01,0.00,30.3,29.3,00.0,39.5,32.0,11.8,0001.9,0018.18,0011.15,0010.35
2021-09-24 11:52:00,,0830.6,4.99,0.00,30.2,29.3,00.0,39.5,32.0,11.8,0002.0,0018.15,0011.17,0010.36
2021-09-24 11:53:00,,0830.5,5.00,0.00,30.2,29.3,00.0,39.4,31.9,11.8,0002.1,0017.67,0011.15,0010.39
2021-09-24 11:54:00,,0830.6,5.01,0.00,30.2,29.3,00.0,39.4,31.9,11.8,0002.0,0017.16,0011.21,0010.42
2021-09-24 11:55:00,,0830.5,5.00,0.00,30.2,29.3,00.0,39.4,32.0,11.8,0002.1,0016.92,0011.28,0010.47
2021-09-24 11:56:00,,0830.6,4.99,0.00,30.2,29.3,00.0,39.4,32.0,11.8,0002.2,0016.89,0011.31,0010.47
2021-09-24 11:57:00,,0830.6,5.00,0.00,30.2,29.3,00.0,39.4,31.9,11.8,0002.1,0016.58,0011.32,0010.51
2021-09-24 11:58:00,,0830.5,5.00,0.00,30.2,29.3,00.0,39.4,32.0,11.7,0002.0,0016.75,0011.39,0010.58
2021-09-24 11:59:00,,0830.6,5.00,0.00,30.2,29.2,00.0,39.4,31.9,11.8,0001.8,0016.81,0011.43,0010.61
